Helicity
22 21 16 14 16 38 52 34 43 44 18 22 8 21 23 89 90 69 53 66 76 94 138 151 152 161 167 184 205 214 213 206 211 221 215 234 286 309 315 276 144 142 201 157
48 43 28 22 10 9 39 16 38 16 -0 21 15 44 69 101 112 132 120 87 83 121 182 217 216 232 211 216 210 236 271 293 295 272 266 269 285 304 272 206 160 179 169 118
71 63 71 58 17 48 61 68 49 15 10 24 27 25 71 111 144 179 175 157 174 194 205 227 227 201 215 224 222 262 269 276 254 241 252 232 254 238 166 170 124 102 92 57
115 94 105 6 84 48 44 42 38 32 40 49 32 106 124 131 154 192 212 220 215 214 211 198 184 187 177 178 202 226 246 229 213 224 242 219 163 114 108 90 100 62 83 94
176 116 112 86 97 117 121 37 51 55 50 30 124 106 105 138 176 208 213 196 181 165 152 145 146 152 191 231 242 247 233 224 213 199 171 144 102 109 83 66 92 112 107 89
216 191 151 84 84 102 115 66 57 56 25 66 148 102 109 177 200 210 199 181 165 155 151 154 160 171 203 205 197 202 201 204 169 171 149 113 88 91 107 123 118 103 104 98
186 195 160 118 146 167 115 91 52 50 42 86 96 141 225 242 247 223 200 181 163 158 164 173 183 192 212 198 201 180 185 193 185 160 154 129 117 144 139 120 117 124 114 123
213 196 172 155 215 176 120 87 69 72 69 81 207 235 230 268 253 222 195 173 172 181 184 197 195 205 221 231 213 215 201 193 187 157 145 165 160 139 132 135 130 129 140 134
167 161 185 82 60 66 101 79 96 106 105 154 245 255 252 272 247 221 207 196 196 224 254 254 243 231 249 229 209 210 215 200 180 184 183 158 160 155 145 139 141 142 137 142
107 109 84 69 50 104 87 102 139 140 132 190 227 290 283 254 250 248 231 234 239 270 315 336 321 298 252 221 203 212 236 224 210 222 173 163 142 140 147 147 139 134 144 147
99 81 70 60 71 69 96 113 128 165 183 152 251 292 284 267 256 256 272 262 275 319 347 363 327 300 266 248 245 260 235 224 202 174 164 148 147 153 148 161 153 146 168 142
162 99 121 49 125 83 77 123 175 259 174 188 238 318 301 275 277 298 320 348 377 373 373 383 378 366 344 314 278 243 226 196 177 156 145 144 144 115 123 143 153 151 170 153
129 119 95 99 75 80 80 146 185 155 164 233 286 301 301 356 324 366 371 395 389 403 410 394 371 376 350 310 261 242 211 170 147 141 143 146 130 127 128 128 109 101 141 125
127 105 81 80 110 75 118 203 217 222 244 283 318 327 373 404 436 411 421 440 437 450 448 391 378 361 279 235 216 188 170 155 138 139 136 127 127 127 130 134 125 118 136 127
106 106 109 81 57 102 139 184 226 281 329 373 358 392 419 414 460 492 488 470 473 467 407 349 359 330 232 183 163 153 135 133 128 129 133 130 127 126 123 125 125 126 120 117
130 102 77 82 74 93 151 206 284 326 369 413 424 413 438 515 556 594 624 608 489 322 294 338 346 219 154 130 123 118 135 151 135 129 126 127 124 124 134 134 129 132 130 150
120 104 96 132 149 153 164 221 239 293 286 297 372 461 564 635 665 692 560 359 336 392 319 193 168 152 132 124 128 135 134 133 127 116 127 129 129 135 139 137 135 141 147 168
173 129 86 57 86 188 235 308 353 340 326 349 482 539 548 505 425 355 380 380 298 229 193 167 145 136 140 142 143 135 127 121 121 127 121 129 141 145 151 151 150 157 159 162
175 127 129 197 183 234 297 268 279 343 367 358 424 472 472 509 427 350 220 195 199 189 156 137 141 136 143 149 122 123 131 133 125 127 128 130 135 158 169 176 175 170 167 165
210 191 165 193 253 237 264 260 244 315 289 328 377 416 377 274 195 188 188 225 190 155 131 130 131 136 123 121 110 124 130 131 132 133 145 148 166 175 186 183 178 184 181 177
172 199 206 222 218 237 241 243 292 328 317 301 253 204 186 180 191 175 159 161 151 144 154 139 133 127 129 118 95 125 119 113 120 134 150 171 178 189 208 210 199 187 179 164
176 199 224 239 251 277 267 267 284 266 235 196 178 167 172 178 177 191 207 165 163 150 154 159 162 169 155 112 131 121 118 122 125 140 163 184 201 210 213 204 191 180 159 135
220 224 237 262 245 238 240 228 212 182 167 150 152 160 166 172 171 165 171 188 175 177 182 195 181 163 158 137 141 136 137 138 143 158 180 196 202 204 195 182 173 151 130 110
216 239 225 188 184 205 222 180 181 187 195 204 209 189 164 163 180 181 194 200 188 162 184 171 158 144 113 120 121 130 130 151 170 179 185 187 181 182 168 160 141 121 102 89
228 201 186 166 168 154 156 153 167 170 169 175 177 179 186 187 187 159 165 179 184 167 173 173 145 121 106 114 119 135 151 170 199 196 181 176 170 160 144 126 110 96 91 82
192 176 168 169 145 127 126 130 154 161 160 171 166 154 148 146 147 150 172 187 187 174 175 155 142 122 117 127 150 165 176 179 175 171 162 148 136 124 108 97 90 83 81 76
174 153 143 162 161 156 153 155 155 164 161 155 150 144 140 137 152 165 174 179 178 169 157 157 156 166 164 168 157 159 154 151 155 146 131 119 109 98 91 85 80 78 74 66
Wind_Speed
46 42 39 31 26 18 18 17 19 14 11 48 64 66 53 42 43 39 33 26 21 18 18 15 16 20 21 21 20 19 22 24 26 26 26 25 23 23 23 23 25 25 27 32
45 40 35 34 31 25 19 13 16 15 16 63 66 52 43 46 45 38 34 30 24 19 18 18 17 19 19 20 22 22 24 25 25 24 23 22 23 23 24 25 24 30 34 40
55 40 40 52 28 21 19 19 17 20 16 57 63 60 42 42 37 34 32 29 26 22 18 17 18 18 20 20 20 22 23 23 22 22 22 23 24 23 24 28 33 40 45 45
62 45 43 39 38 24 24 26 17 17 22 32 63 49 37 35 31 25 24 21 20 18 17 16 16 17 18 19 20 21 22 22 21 21 23 23 25 26 31 35 44 43 44 47
61 60 61 44 35 31 25 27 15 28 29 33 36 36 38 30 24 19 16 16 17 17 17 17 18 18 19 20 21 22 22 21 22 22 25 26 31 36 39 39 42 45 48 51
52 65 70 43 38 28 34 36 43 39 33 26 23 26 30 16 13 13 13 15 16 17 18 18 19 19 20 20 20 21 21 22 24 27 31 34 35 37 39 42 45 48 51 54
61 65 57 39 33 20 36 45 45 32 31 23 21 35 18 9 9 10 11 13 15 17 19 20 19 19 20 20 22 22 24 26 29 32 34 36 38 41 44 46 50 53 57 61
57 67 70 30 29 38 48 46 40 36 28 19 24 22 13 6 5 5 7 9 13 16 18 18 18 18 20 23 23 24 27 30 32 35 37 39 41 44 47 51 56 60 63 65
52 56 41 22 40 39 51 51 46 37 29 22 19 16 8 5 2 2 4 7 10 12 15 18 19 19 22 24 25 27 30 33 35 37 40 43 45 49 53 56 60 63 65 69
62 52 48 45 38 51 51 47 45 39 30 19 17 11 6 4 3 3 4 6 8 11 15 19 21 23 25 26 28 29 32 35 38 42 43 46 48 51 55 58 61 64 69 73
73 65 66 66 52 45 39 46 43 40 30 22 16 12 9 8 7 5 4 4 7 11 15 19 21 25 28 29 30 33 35 38 41 43 47 49 51 53 55 55 61 66 69 72
60 55 55 67 53 49 52 47 44 36 26 20 14 12 11 10 8 5 3 3 7 10 15 19 22 27 30 32 32 34 39 42 45 47 48 51 53 53 47 53 59 63 63 68
55 54 57 61 62 59 54 49 39 28 18 16 12 10 10 10 7 5 5 6 9 12 16 19 25 29 31 33 35 37 41 43 44 47 50 53 55 57 60 58 56 58 62 68
52 54 61 58 63 55 49 43 29 21 17 13 9 9 10 9 7 7 8 9 8 11 16 21 26 30 31 33 35 40 42 45 46 49 52 54 57 59 61 64 67 66 65 68
44 47 53 50 49 46 38 28 22 19 15 11 10 10 10 10 9 8 9 8 13 18 20 23 27 31 33 35 38 41 44 47 49 51 53 56 58 60 62 65 67 69 69 68
42 45 46 48 45 41 35 29 23 17 13 10 11 11 9 11 10 11 12 13 18 20 23 27 29 32 34 36 40 43 46 49 51 53 56 59 60 63 65 67 68 69 71 73
42 48 44 42 39 36 34 26 20 15 13 10 8 9 8 11 12 15 18 17 18 21 29 30 30 34 38 40 43 46 48 51 54 55 58 61 63 65 66 68 69 69 69 69
43 41 40 35 28 24 22 19 20 16 13 9 7 8 10 11 13 15 15 18 23 32 31 31 34 38 41 43 46 48 51 53 56 59 60 62 64 65 66 68 69 72 71 70
36 32 31 30 28 21 19 17 17 15 10 11 12 13 12 14 15 15 18 25 31 33 32 33 36 40 44 48 49 52 54 57 58 60 62 63 64 66 67 68 71 72 73 74
24 22 21 23 24 21 18 16 14 15 15 13 13 14 16 18 18 21 25 32 35 33 33 37 41 45 48 51 54 55 57 59 61 63 63 65 66 67 67 69 71 72 73 74
19 20 20 22 23 22 20 17 17 18 18 18 18 20 22 23 25 26 30 36 35 35 38 43 47 50 53 56 57 59 61 62 63 65 66 67 69 69 70 71 72 72 73 73
20 21 22 23 23 23 23 22 21 21 22 24 24 24 25 27 30 36 41 40 38 41 46 49 52 55 57 60 61 63 64 65 66 66 67 69 70 71 72 72 72 72 72 71
23 24 24 25 24 24 25 26 26 26 26 26 27 29 31 34 38 43 49 45 45 47 51 54 56 59 62 63 65 66 67 68 68 69 70 70 70 71 71 71 70 70 70 70
25 26 26 26 26 27 28 29 30 30 31 32 34 36 38 41 45 46 46 47 49 53 58 59 61 63 65 66 68 69 70 70 72 72 70 69 69 69 68 68 68 68 67 67
27 28 28 28 29 30 30 30 32 34 36 38 41 43 45 49 52 50 51 53 55 59 61 62 65 66 67 69 70 71 71 73 73 72 71 70 69 68 67 66 65 66 65 62
28 29 31 33 32 33 35 36 38 41 43 46 48 50 52 53 53 53 55 57 60 63 65 68 69 70 71 72 72 74 74 73 72 70 70 69 67 66 64 63 63 62 61 59
31 32 33 36 39 40 41 42 44 47 50 53 54 56 57 57 57 58 60 62 66 68 70 72 73 73 73 75 75 73 72 71 69 69 68 66 64 62 60 60 60 59 58 55
Wind_Direction
271 281 290 294 300 287 268 256 277 309 251 311 288 281 292 301 308 318 320 322 324 328 327 328 321 316 317 319 321 324 326 328 331 335 339 342 345 346 345 341 338 337 330 326
270 278 284 289 294 291 281 289 302 287 261 298 285 296 300 301 306 314 321 327 330 330 325 323 325 323 325 326 325 329 331 333 339 345 349 351 354 351 347 346 347 340 332 326
265 282 285 285 285 287 289 300 300 304 311 307 291 292 303 305 311 315 321 324 326 328 329 328 328 331 330 333 338 338 341 347 351 353 354 355 355 354 350 342 338 332 327 327
265 275 269 287 300 294 285 297 291 295 314 318 297 304 311 311 314 322 333 342 348 349 353 356 358 356 357 355 354 354 355 356 359 2 2 1 358 350 342 335 330 332 332 331
261 267 279 291 293 297 299 299 279 303 313 319 316 315 313 316 322 334 352 11 18 21 19 16 9 7 4 359 359 359 360 4 7 6 360 354 344 337 334 335 336 334 333 332
264 266 272 290 290 298 305 300 306 310 319 320 320 312 316 323 333 342 7 19 24 24 24 18 10 8 7 8 9 9 10 7 1 354 347 343 344 343 341 339 337 336 334 333
262 270 281 295 296 309 293 303 312 315 318 324 317 317 333 336 332 348 2 14 19 15 10 7 10 15 13 13 8 9 5 0 355 352 351 348 346 343 340 339 336 335 333 332
264 269 272 294 296 287 298 307 313 314 313 319 319 323 328 319 316 345 0 17 9 7 5 7 10 11 8 3 6 4 0 356 355 352 349 347 344 342 339 337 334 333 333 332
268 277 292 279 292 293 297 300 307 309 309 310 313 315 304 282 267 326 9 14 9 10 9 6 6 6 3 2 2 359 356 353 351 349 347 345 342 340 337 336 335 334 333 333
275 282 285 288 295 294 293 298 307 310 307 303 297 291 268 241 252 298 333 350 9 8 358 356 358 358 358 357 355 353 351 348 347 345 344 343 341 340 337 336 335 335 334 333
273 278 282 284 293 292 294 299 303 305 299 289 281 264 248 243 257 279 309 358 359 349 347 348 352 352 352 351 351 348 346 345 343 343 341 340 340 340 339 340 338 336 336 335
277 283 284 281 292 293 292 297 299 301 293 279 260 241 235 248 256 260 266 332 341 348 343 341 346 346 347 347 346 344 340 340 340 340 340 340 339 338 343 342 340 339 340 339
282 288 287 286 290 295 296 299 299 297 281 264 259 232 233 241 242 254 280 305 320 331 338 341 341 342 344 346 346 344 340 340 340 340 339 339 338 337 336 337 339 339 339 339
287 291 288 292 292 296 299 299 302 304 292 275 248 232 241 248 248 265 284 305 325 334 338 338 339 340 344 346 345 342 342 342 340 339 339 338 338 336 336 335 335 335 338 339
296 295 293 297 298 299 303 304 298 293 287 279 270 260 262 255 268 298 319 332 329 326 329 334 337 341 344 344 342 341 340 339 339 339 339 337 337 336 335 335 334 335 336 338
294 296 298 299 299 299 298 296 289 290 286 273 270 271 277 288 295 310 324 327 321 322 328 331 338 341 343 342 340 340 341 340 339 337 337 336 336 335 334 334 334 335 336 337
301 298 300 302 300 297 293 297 291 286 287 280 280 278 292 297 309 315 318 330 332 331 326 337 343 341 341 340 340 339 339 338 337 337 336 335 335 334 334 334 334 335 336 338
300 303 301 303 308 312 310 313 307 302 288 283 294 301 305 306 311 319 333 331 330 326 338 343 342 341 342 342 341 339 338 336 336 335 335 335 335 335 335 334 334 334 335 337
303 307 314 315 318 329 328 333 327 329 327 316 317 318 327 331 330 335 333 329 327 331 336 341 342 341 341 341 339 338 337 335 335 334 334 334 334 334 334 335 334 334 335 335
325 332 338 341 345 348 358 349 346 350 340 350 0 353 349 349 347 338 332 330 332 334 338 338 338 338 337 338 337 336 335 334 333 333 333 333 333 333 334 333 333 334 334 334
345 354 355 4 11 17 17 12 13 17 13 5 359 348 339 338 337 337 332 329 334 337 337 336 334 333 334 334 334 333 333 332 332 331 331 331 331 332 332 333 333 333 333 334
13 15 15 20 23 23 21 23 23 15 4 355 350 347 344 340 337 334 334 331 333 333 332 331 332 333 332 332 331 330 330 330 329 329 329 329 329 330 330 331 332 333 333 334
22 25 27 28 31 31 26 15 10 7 2 359 354 347 341 338 335 329 326 332 332 331 331 330 330 330 330 329 328 328 328 327 327 326 326 327 328 329 329 330 331 332 333 334
33 31 32 32 30 22 13 9 8 5 1 357 352 347 341 336 335 336 336 334 332 329 328 328 328 328 328 327 326 326 325 326 325 325 326 326 327 328 329 330 330 332 333 334
35 33 27 20 13 8 8 4 359 354 350 347 346 344 341 338 333 332 331 330 330 329 328 329 328 327 326 325 325 325 325 324 325 325 325 326 326 327 328 329 330 331 333 335
22 18 15 9 5 359 355 352 348 347 344 341 340 339 337 336 335 333 332 331 330 329 328 328 327 326 325 325 324 323 324 324 325 325 326 326 326 327 328 329 331 332 334 335
18 14 9 4 0 357 355 352 348 344 343 339 337 337 336 335 334 333 331 330 329 328 327 327 326 326 326 324 324 324 324 325 326 326 327 327 328 329 330 331 332 333 335 336